[[{"header":{"parameterUnit":"m.s-1","parameterCategory":1,"la1":30.2991,"la2":30.254,"lo1":-89.0895,"lo2":-89.0444,"dy":0.0017,"dx":0.0017,"nx":28,"ny":28,"refTime":"2024-05-19T09:00:00:Z","depth":0,"parameterNumber":2,"parameterNumberName":"U-component_of_WINDS"},"data":[0,0,0,0,0,0,0,0,0,0,0,0,0,0,0,0,0,0,0,0,0,0,0,0,0,0,0,0,0,0,0,0,0,0,0,0,0,0,0,0,0,0,0,0,0,0,0,0,0,0,0,0,0,0,0,0,0,0,1.1017,1.1019,0,1.1117,1.1118,1.1119,1.1146,1.1146,1.1145,1.1145,1.1247,1.125,1.1254,0,0,0,0,0,0,0,0,0,0,0,0,0,1.085,1.0853,1.1017,1.1019,1.102,1.1117,1.1118,1.1119,1.1146,1.1146,1.1145,1.1144,1.1246,1.125,1.1254,0,0,0,0,0,0,0,0,0,0,0,0,0,1.0934,1.0854,1.1017,1.1045,1.1048,1.1116,1.1118,1.112,1.1147,1.1146,1.1145,1.1144,1.1245,1.125,1.1254,1.1302,0,0,1.1269,1.1272,0,0,0,0,0,0,0,0,1.0929,1.094,1.104,1.1043,1.1047,1.1118,1.1097,1.1181,1.1147,1.1109,1.1145,1.1144,1.1205,1.1213,1.1234,1.1307,1.1311,1.127,1.1273,1.1275,1.1276,0,0,0,0,0,0,0,1.0923,1.0936,1.1057,1.1041,1.1046,1.1052,1.1063,1.1113,1.1161,1.1113,1.1115,1.1126,1.1207,1.1229,1.1236,1.1313,1.127,1.1274,1.1277,1.1279,1.1428,1.1429,0,0,0,0,0,0,1.0913,1.0931,1.1054,1.106,1.0985,1.1056,1.1068,1.1096,1.116,1.1169,1.1127,1.1127,1.1221,1.1231,1.124,1.1298,1.1275,1.128,1.1282,1.1427,1.1428,1.1429,0,0,0,0,0,0,1.0909,1.0923,1.105,1.0996,1.1012,1.106,1.1091,1.1099,1.1121,1.1171,1.118,1.114,1.1221,1.1233,1.1286,1.1302,1.1282,1.1286,1.1426,1.1427,1.1429,1.1416,0,0,0,0,0,0,1.0904,1.0922,1.0941,1.0996,1.1015,1.1094,1.1092,1.1101,1.1129,1.113,1.1186,1.1195,1.1221,1.1278,1.1291,1.1309,1.129,1.1424,1.1426,1.1428,1.1415,1.1417,1.1419,0,0,0,0,0,1.0898,1.0934,1.0941,1.0956,1.104,1.1095,1.1106,1.1135,1.113,1.1149,1.1181,1.1193,1.1299,1.1284,1.1298,1.1317,1.1423,1.1426,1.1428,1.1415,1.1417,1.1419,0,0,0,0,0,0,1.088,1.0942,1.0951,1.1006,1.1045,1.1099,1.1124,1.1137,1.1178,1.1178,1.1212,1.1225,1.1275,1.1302,1.1284,1.1366,1.1361,1.1366,1.1346,1.1349,1.135,1.1343,1.1294,0,0,0,0,0,1.0882,1.0922,1.0974,1.1017,1.1036,1.1077,1.1102,1.1121,1.1163,1.1179,1.1215,1.1256,1.1298,1.1325,1.1367,1.142,1.1431,1.144,1.1442,1.1443,1.1447,1.1475,1.1479,1.1436,1.1436,1.1436,0,0,1.0887,1.0926,1.0949,1.1014,1.1047,1.1086,1.109,1.1133,1.1162,1.1186,1.1237,1.1265,1.1312,1.1365,1.139,1.1389,1.1461,1.1446,1.1446,1.145,1.1478,1.1481,1.1485,1.1438,1.1438,1.1438,0,0,1.0917,1.0951,1.099,1.1022,1.107,1.1097,1.1106,1.1159,1.1178,1.123,1.1248,1.1283,1.1356,1.1388,1.1414,1.1454,1.1466,1.1467,1.1475,1.1502,1.1505,1.1509,1.1521,1.1526,1.1471,1.1471,1.1471,0,1.0917,1.0978,1.1008,1.1049,1.1077,1.1099,1.1138,1.1168,1.1228,1.1246,1.1244,1.1334,1.1368,1.1427,1.1437,1.1457,1.1468,1.146,1.1503,1.1506,1.1509,1.1522,1.1527,1.147,1.147,1.147,1.147,0,1.0975,1.1017,1.1043,1.1099,1.1129,1.1169,1.1205,1.1232,1.1248,1.1275,1.1327,1.1367,1.1417,1.1433,1.1449,1.1494,1.1492,1.1496,1.1492,1.1512,1.1525,1.153,1.147,1.147,1.147,1.147,0,0,1.0997,1.1068,1.1077,1.1102,1.1156,1.1189,1.1229,1.1277,1.1299,1.134,1.1374,1.1434,1.1437,1.1466,1.1487,1.1511,1.1538,1.1512,1.1513,1.1514,1.1588,1.1583,1.1589,1.1546,1.1547,1.1548,1.1583,0,1.1032,1.1105,1.1132,1.1191,1.1229,1.1251,1.1286,1.1323,1.1348,1.1384,1.1412,1.1454,1.1456,1.1473,1.1498,1.1529,1.1553,1.1527,1.1577,1.1579,1.1564,1.1595,1.1591,1.1623,1.1588,1.1589,1.159,0,1.1083,1.1123,1.1185,1.1234,1.1251,1.1282,1.1327,1.1361,1.1403,1.142,1.1452,1.147,1.1512,1.1506,1.1564,1.1546,1.1568,1.1586,1.1588,1.1593,1.1585,1.16,1.1634,1.1638,1.1598,1.1597,1.1597,0,1.109,1.116,1.1206,1.1227,1.1285,1.1306,1.1331,1.1372,1.1398,1.1438,1.1455,1.1499,1.1523,1.1557,1.1586,1.1579,1.1641,1.1638,1.1656,1.1655,1.1668,1.1666,1.1704,1.1683,1.1683,1.1683,1.1683,0,1.1126,1.1163,1.1209,1.1237,1.1279,1.1311,1.1351,1.1378,1.1414,1.1447,1.1469,1.1499,1.1537,1.1573,1.1596,1.164,1.1651,1.1665,1.1671,1.1663,1.1661,1.1677,1.1675,1.1684,1.1684,1.1684,1.1684,0,1.1141,1.1174,1.1225,1.1275,1.1289,1.1317,1.136,1.1388,1.1414,1.1456,1.1467,1.1508,1.1551,1.1584,1.164,1.1655,1.1701,1.1708,1.1687,1.169,1.1705,1.1703,1.1754,1.1762,1.1737,1.1737,1.1737,0,1.1161,1.119,1.1243,1.1267,1.1292,1.133,1.1356,1.1388,1.1415,1.1464,1.1485,1.153,1.1566,1.1633,1.1668,1.171,1.1718,1.1733,1.1724,1.1715,1.1717,1.1714,1.1716,1.1734,1.1734,1.1734,1.1734,0,1.1193,1.1208,1.1245,1.1288,1.1319,1.1354,1.139,1.1408,1.1446,1.1475,1.1519,1.1547,1.1603,1.1646,1.1692,1.1718,1.1732,1.1736,1.1742,1.1734,1.172,1.1727,1.1689,1.1735,1.1735,1.1735,1.1735,1.1735,1.1211,1.1237,1.1278,1.1319,1.1349,1.1381,1.1409,1.1438,1.1475,1.1523,1.1539,1.1584,1.1624,1.1686,1.1712,1.1747,1.1748,1.1757,1.176,1.1761,1.176,1.1715,1.1756,1.1756,1.1756,1.1756,1.1756,0,1.1243,1.127,1.1307,1.1356,1.1388,1.1398,1.1437,1.1463,1.1502,1.1538,1.1573,1.1623,1.1664,1.1701,1.1745,1.1765,1.1773,1.1775,1.1774,1.1779,1.1757,1.1747,1.1769,1.1769,1.1769,1.1769,1.1769,1.1769,1.1263,1.1307,1.1326,1.1385,1.1412,1.1455,1.1477,1.1506,1.1535,1.1589,1.1623,1.1647,1.1684,1.1729,1.1767,1.1777,1.1792,1.1793,1.1804,1.1783,1.1781,1.1779,1.177,1.1796,1.1796,1.1823,1.1823,1.1823]},{"header":{"parameterUnit":"m.s-1","parameterCategory":1,"la1":30.2991,"la2":30.254,"lo1":-89.0895,"lo2":-89.0444,"dy":0.0017,"dx":0.0017,"nx":28,"ny":28,"refTime":"2024-05-19T09:00:00:Z","depth":0,"parameterNumber":3,"parameterNumberName":"V-component_of_WINDS"},"data":[0,0,0,0,0,0,0,0,0,0,0,0,0,0,0,0,0,0,0,0,0,0,0,0,0,0,0,0,0,0,0,0,0,0,0,0,0,0,0,0,0,0,0,0,0,0,0,0,0,0,0,0,0,0,0,0,0,0,2.9511,2.9511,0,2.9481,2.9481,2.948,2.9434,2.9433,2.9432,2.9431,2.9401,2.9401,2.9401,0,0,0,0,0,0,0,0,0,0,0,0,0,2.9528,2.9528,2.9511,2.9511,2.951,2.9481,2.9481,2.948,2.9434,2.9433,2.9432,2.9431,2.9401,2.9401,2.9401,0,0,0,0,0,0,0,0,0,0,0,0,0,2.9512,2.9528,2.9511,2.9484,2.9481,2.9481,2.9481,2.948,2.9434,2.9433,2.9432,2.9431,2.9401,2.9401,2.9401,2.9426,0,0,2.9401,2.9401,0,0,0,0,0,0,0,0,2.9513,2.9511,2.9488,2.9486,2.9482,2.946,2.9476,2.9462,2.9435,2.9452,2.9431,2.943,2.9422,2.942,2.9417,2.9424,2.9423,2.9401,2.9401,2.9401,2.9401,0,0,0,0,0,0,0,2.9514,2.9512,2.9499,2.9488,2.9484,2.9473,2.9469,2.9473,2.9444,2.945,2.9447,2.9444,2.942,2.9417,2.9416,2.9422,2.9401,2.9401,2.9401,2.9401,2.9447,2.9449,0,0,0,0,0,0,2.9519,2.9514,2.95,2.9498,2.9495,2.9474,2.9469,2.9468,2.9444,2.9439,2.9445,2.9442,2.9418,2.9416,2.9415,2.944,2.9401,2.9401,2.9401,2.9446,2.9448,2.9449,0,0,0,0,0,0,2.952,2.9519,2.9501,2.9505,2.9502,2.9475,2.9474,2.9468,2.9466,2.944,2.9435,2.9447,2.9417,2.9415,2.9423,2.9439,2.9401,2.9401,2.9445,2.9447,2.9448,2.9493,0,0,0,0,0,0,2.9521,2.9519,2.9528,2.9506,2.9502,2.951,2.9475,2.9469,2.9466,2.9461,2.9441,2.9436,2.9416,2.9423,2.9423,2.9438,2.94,2.9443,2.9445,2.9448,2.949,2.9496,2.9502,0,0,0,0,0,2.9521,2.9542,2.9529,2.9527,2.9513,2.9511,2.9509,2.9485,2.9467,2.9476,2.9459,2.9437,2.9438,2.9424,2.9424,2.9439,2.9442,2.9445,2.9448,2.9487,2.9495,2.9502,0,0,0,0,0,0,2.9567,2.9539,2.9523,2.9537,2.9527,2.9503,2.9513,2.9494,2.9488,2.9484,2.9455,2.945,2.9462,2.9452,2.9438,2.9461,2.9436,2.9439,2.9467,2.9474,2.948,2.9481,2.94,0,0,0,0,0,2.9579,2.958,2.9555,2.957,2.9566,2.9541,2.9539,2.9521,2.9509,2.9505,2.9489,2.9478,2.9476,2.9475,2.9471,2.9489,2.9483,2.95,2.9505,2.951,2.9512,2.952,2.9526,2.9458,2.9458,2.9458,0,0,2.9603,2.9588,2.959,2.9579,2.9569,2.957,2.9537,2.954,2.9541,2.9505,2.9511,2.95,2.9486,2.9499,2.9504,2.949,2.953,2.9514,2.9518,2.9517,2.9523,2.953,2.9535,2.946,2.946,2.946,0,0,2.9647,2.9636,2.9646,2.9637,2.9622,2.9606,2.9608,2.9588,2.9578,2.9584,2.9557,2.9558,2.9555,2.9546,2.9541,2.9582,2.9561,2.9582,2.9612,2.9619,2.9624,2.9629,2.9642,2.9647,2.9585,2.9585,2.9585,0,2.9678,2.9679,2.9654,2.9659,2.9654,2.9623,2.9633,2.9625,2.961,2.9608,2.9593,2.9588,2.9577,2.9586,2.9597,2.9594,2.9596,2.9583,2.9626,2.963,2.9634,2.9646,2.9651,2.9588,2.9587,2.9587,2.9587,0,2.9718,2.9719,2.973,2.9715,2.9712,2.972,2.9696,2.9696,2.968,2.9664,2.9671,2.9656,2.9648,2.965,2.9634,2.9657,2.9649,2.9631,2.9605,2.9643,2.9654,2.9658,2.9591,2.959,2.9589,2.9589,0,0,2.9787,2.976,2.9764,2.9757,2.9739,2.9739,2.9746,2.9738,2.9738,2.9729,2.9733,2.9731,2.9714,2.9709,2.9691,2.9698,2.973,2.9679,2.9678,2.9687,2.9753,2.9765,2.9771,2.9717,2.9718,2.9718,2.9753,0,2.9826,2.9834,2.9812,2.9826,2.9826,2.9797,2.9802,2.9792,2.9778,2.9776,2.9762,2.976,2.9739,2.9735,2.9741,2.9725,2.9742,2.9723,2.9718,2.9719,2.972,2.9776,2.9789,2.9823,2.9757,2.9758,2.9759,0,2.9871,2.9864,2.9878,2.9858,2.9858,2.9863,2.9854,2.9853,2.9841,2.983,2.9825,2.9805,2.9809,2.9786,2.9791,2.9778,2.9776,2.9768,2.9768,2.9765,2.9739,2.9772,2.9833,2.9837,2.9765,2.9765,2.9764,0,2.9917,2.9912,2.9919,2.9914,2.9892,2.9896,2.9888,2.9874,2.9871,2.9864,2.9861,2.9855,2.9851,2.9846,2.9825,2.9811,2.9832,2.9808,2.9822,2.9823,2.9826,2.9826,2.9885,2.9829,2.9829,2.9829,2.9829,0,2.9961,2.997,2.9939,2.9943,2.9953,2.9928,2.9938,2.9926,2.9915,2.9916,2.9891,2.9893,2.9866,2.9864,2.9848,2.9853,2.9853,2.9844,2.9839,2.9844,2.9845,2.984,2.9837,2.983,2.983,2.983,2.9829,0,3.0013,2.9993,2.9999,2.9978,2.9973,2.9981,2.9963,2.9966,2.9951,2.9953,2.9952,2.9929,2.9926,2.9905,2.9898,2.9887,2.9898,2.989,2.9902,2.9898,2.9913,2.9911,2.997,2.9975,2.9918,2.9918,2.9919,0,3.0041,3.0047,3.0027,3.0026,3.0018,3.0017,3.0014,2.9991,2.9988,2.9975,2.9979,2.9974,2.9969,2.9965,2.9948,2.9942,2.9932,2.9953,2.9931,2.9936,2.993,2.9928,2.9928,2.9957,2.9957,2.9958,2.9959,0,3.0091,3.0081,3.0078,3.0071,3.0067,3.0061,3.0053,3.0053,3.0028,3.0026,3.0023,3.0019,3.0011,3.0006,2.9997,2.9988,2.9968,2.9966,2.9969,2.9973,2.9979,2.9974,2.9912,2.9964,2.9964,2.9963,2.9963,2.9963,3.013,3.0134,3.0121,3.0117,3.0109,3.0102,3.0103,3.0089,3.0086,3.0078,3.0065,3.0063,3.0051,3.0037,3.0029,3.0027,3.0016,3.002,3.0021,3.0022,3.0024,2.9982,3.0026,3.0025,3.0025,3.0025,3.0025,0,3.0178,3.0168,3.0165,3.0155,3.0152,3.0136,3.0126,3.0124,3.0123,3.0113,3.0109,3.0105,3.01,3.0083,3.0076,3.0078,3.0069,3.0076,3.0075,3.0073,3.0035,3.0033,3.0084,3.0084,3.0084,3.0084,3.0084,3.0084,3.0202,3.0207,3.0196,3.0197,3.0187,3.0185,3.0181,3.0174,3.0166,3.0162,3.0158,3.0147,3.0134,3.0126,3.0121,3.0116,3.0114,3.0124,3.0116,3.0081,3.0076,3.007,3.0067,3.0125,3.0125,3.0153,3.0154,3.0154]}]]